Weather in Volkonskoye

Russia / Kaluga Oblast     53°56′09″N   35°39′42″E
temp.,
°C
wind,
m/s
gust,
m/s
humid.,
%
clouds,
%
prec.,
mm/h
press.,
hPa
HPBL,
m
9 may, sun
sun900:00+6nnw71196100 1.5 10051126
03:00+3nw81497100 4.9 1008896
06:00+3nw61295100 1.1 1011870
09:00+5nw7118299 1.2 10131136
12:00+6nw81074100 0.2 10151291
15:00+8nnw7116299 0.3 10171651
18:00+10nnw511625 0.1 10191764
21:00+5wnw37803 0.1 1021106
10 may, mon
mon1000:00+3nw310821 0.0 1024164
03:00+2nnw38830 0.0 1026131
06:00+2nnw37760 0.0 1027160
09:00+9n35590 0.0 1028531
12:00+12n57464 0.0 10281550
15:00+13nne57430 0.0 10271614
18:00+12nne48540 0.0 10271011
21:00+7ne33740 0.0 102834
11 may, tue
tue1100:00+5ne39800 0.0 1028148
03:00+4nne411792 0.0 1028232
06:00+5nne4147691 0.0 1028378
09:00+10ne61268100 0.0 1027513
12:00+14ene6106563 0.0 1026679
15:00+18ene686375 0.0 10251329
18:00+16ene5978100 0.2 1025856
21:00+12ene35967 1.9 102598
12 may, wed
wed1200:00+12ene239889 0.2 102486
03:00+11sse2498100 1.3 1023186
06:00+8s3797100 1.3 1023345
09:00+8ene1296100 2.7 1024130
12:00+14e4568100 0.0 10231239
15:00+16e575656 0.1 10211751
18:00+14e487378 0.5 1020538
21:00+11e389398 1.1 1019218
13 may, thu
thu1300:00+11e359799 0.7 1019145
03:00+10se2697100 1.1 1019212
06:00+10ese3897100 0.1 1018316
09:00+11se3993100 0.4 1018459
12:00+16sse697192 0.3 10181282
15:00+17sse477291 1.3 1017947
18:00+17sse377455 0.6 1017748
21:00+13ese2288100 0.6 101726